SCP
0 0 0 0 0 0 0 0 0 0 0 0 0 0 0 0 0 0 0 0 0 0 0 1 1 1 1 0 0 0 0 0 0 0 0 0 0 0 0 0 0 0 0 0 0 0 0 0 0
0 0 0 0 0 0 0 0 0 0 0 0 0 0 0 0 0 0 0 0 0 0 1 1 1 1 1 1 0 0 0 0 0 0 0 0 0 0 0 0 0 0 0 0 0 0 0 0 0
0 0 0 0 0 0 0 0 0 0 0 0 0 0 0 0 0 0 0 0 0 0 1 1 1 1 1 1 1 0 0 0 0 0 0 0 0 0 0 0 0 0 0 0 0 0 0 0 0
0 0 0 0 0 0 0 0 0 0 0 0 0 0 0 0 0 0 0 0 0 0 1 1 1 1 1 1 1 1 1 0 0 0 0 0 0 0 0 0 0 0 0 0 0 0 0 0 0
0 0 0 0 0 0 0 0 0 0 0 0 0 0 0 0 1 1 0 0 0 1 1 1 1 1 1 1 1 1 1 1 1 1 1 0 0 0 0 0 0 0 0 0 0 0 0 0 0
0 0 0 0 0 0 0 0 1 1 0 0 0 0 0 1 1 1 0 0 0 1 1 1 1 1 1 1 1 1 1 1 1 1 1 1 0 0 0 0 0 0 0 0 0 0 0 0 0
0 0 0 0 0 0 0 0 1 1 1 0 0 0 0 1 1 1 0 0 0 1 1 1 1 1 1 1 1 1 1 1 1 1 1 1 0 0 0 0 0 0 0 0 0 0 0 0 0
0 0 0 0 0 0 0 0 1 1 1 0 0 0 1 1 1 1 1 1 1 1 1 1 1 1 1 1 1 1 1 1 1 1 1 1 1 0 0 0 0 0 0 0 0 0 0 0 0
0 0 0 0 0 0 0 0 1 1 1 1 1 1 1 1 2 2 2 2 2 1 1 1 2 2 2 2 1 1 1 1 1 1 1 1 1 1 1 1 1 1 1 1 1 1 1 1 1
0 0 0 0 0 0 0 0 1 1 1 1 1 1 1 2 2 3 4 4 3 2 2 2 2 2 2 2 1 1 1 1 1 1 1 1 1 1 1 1 1 1 1 1 1 1 1 1 1
0 0 0 0 0 0 0 0 1 1 1 1 1 1 2 2 2 3 5 5 4 3 2 2 2 2 2 2 2 2 1 1 1 1 1 1 1 1 1 1 1 1 1 1 1 1 1 1 2
0 0 0 0 0 0 0 0 1 1 1 1 1 2 2 2 3 4 5 6 6 5 4 3 2 2 2 2 2 2 2 2 1 1 1 1 1 1 1 1 1 1 2 2 2 1 1 2 3
0 0 0 0 0 0 0 0 1 1 1 1 2 2 2 2 3 4 5 6 6 6 5 4 3 3 2 2 2 2 2 2 2 2 1 1 1 1 1 1 1 1 1 2 2 1 1 3 5
0 0 0 0 0 0 0 1 1 1 1 2 2 2 2 2 3 4 5 5 6 6 5 5 5 4 3 3 3 3 3 3 3 2 2 2 2 1 1 1 1 1 1 1 1 1 1 2 3
0 0 0 0 0 0 0 0 1 1 2 2 2 2 2 3 3 4 4 5 6 6 6 6 6 6 5 5 4 4 4 4 3 3 2 2 2 2 1 1 1 1 1 1 1 1 1 1 1
0 0 0 0 0 0 0 0 1 1 2 2 2 2 3 3 4 5 5 5 6 6 7 7 8 9 9 7 6 5 4 4 3 3 2 2 2 2 1 1 1 1 1 1 1 1 1 1 1
0 0 0 0 0 0 0 1 1 2 3 3 3 3 4 4 6 7 7 6 5 5 6 7 8 10 10 9 7 6 5 4 3 3 2 2 2 2 1 1 1 1 1 1 1 0 0 0 0
0 0 0 0 0 0 1 1 2 2 3 4 4 4 6 7 8 7 6 5 5 4 5 5 5 6 8 9 7 6 5 4 3 2 2 2 2 1 1 1 1 0 0 0 0 0 0 0 0
0 0 0 0 0 0 1 1 1 2 3 4 5 6 7 8 7 5 4 3 3 3 3 3 2 3 5 6 6 5 4 3 3 2 2 1 1 1 1 1 0 0 0 0 0 0 0 0 0
0 0 0 0 0 0 0 1 1 1 2 3 5 6 7 5 3 2 1 1 1 1 1 1 1 1 2 3 4 3 3 2 2 1 1 1 1 1 1 0 0 0 0 0 0 0 0 0 0
0 0 0 0 0 0 0 1 1 1 1 2 4 5 4 2 1 1 1 1 1 1 1 1 0 0 1 1 2 2 2 1 1 1 1 1 1 1 1 1 0 0 0 0 0 0 0 0 0
0 0 0 0 0 0 0 0 1 1 1 2 2 2 2 1 1 0 0 0 1 1 0 0 0 0 0 1 1 1 1 1 1 1 1 1 1 1 1 1 1 0 0 0 0 0 0 0 0
0 0 0 0 0 0 0 0 1 1 1 1 1 1 1 1 0 0 0 0 0 0 0 0 0 0 0 1 1 1 1 1 1 1 1 1 1 1 1 1 1 1 0 0 0 0 0 0 0
0 0 0 0 0 0 0 0 1 1 1 0 0 0 0 0 0 0 0 0 0 0 0 0 0 0 0 0 1 1 1 1 1 1 1 1 1 1 1 1 1 1 1 1 0 0 0 0 0
0 0 0 0 0 0 0 0 1 1 0 0 0 0 0 0 0 0 0 0 0 0 0 0 0 0 0 0 0 0 0 1 1 1 1 1 1 1 1 1 1 1 1 1 1 0 0 0 0
0 0 0 0 0 0 0 0 1 1 0 0 0 0 0 0 0 0 0 0 0 0 0 0 0 0 0 0 0 0 0 0 0 0 0 0 1 1 1 1 1 1 1 1 1 1 0 0 0
0 0 0 0 0 0 0 0 0 0 0 0 0 0 0 0 0 0 0 0 0 0 0 0 0 0 0 0 0 0 0 0 0 0 0 0 0 0 0 0 1 1 1 1 1 1 1 0 0
0 0 0 0 0 0 0 0 0 0 0 0 0 0 0 0 0 0 0 0 0 0 0 0 0 0 0 0 0 0 0 0 0 0 0 0 0 0 0 0 0 1 1 1 1 1 1 1 1
0 0 0 0 0 0 0 0 0 0 0 0 0 0 0 0 0 0 0 0 0 0 0 0 0 0 0 0 0 0 0 0 0 0 0 0 0 0 0 0 0 0 0 1 1 1 1 1 1
0 0 0 0 0 0 0 0 0 0 0 0 0 0 0 0 0 0 0 0 0 0 0 0 0 0 0 0 0 0 0 0 0 0 0 0 0 0 0 0 0 0 0 0 0 1 1 1 1
Wind_Speed
8 7 3 2 1 1 4 5 1 4 5 6 9 10 8 5 4 4 5 16 19 18 14 17 18 18 19 19 19 18 18 17 17 16 16 16 16 15 15 15 15 14 14 13 13 12 12 11 11
4 6 3 1 1 2 5 3 6 6 7 8 8 7 7 6 7 9 7 16 21 18 13 14 19 19 20 20 19 18 18 18 17 17 16 16 15 15 14 14 14 13 13 13 12 12 11 10 10
4 5 3 1 0 2 4 6 7 7 3 4 5 5 5 7 9 7 9 18 17 14 11 15 21 20 20 20 19 19 18 18 17 17 16 16 15 15 15 14 13 13 13 12 12 12 11 10 9
3 2 1 2 3 5 2 4 7 11 8 7 6 5 4 5 8 11 17 18 17 13 11 15 21 21 20 20 19 19 18 18 17 17 16 16 15 15 14 14 13 13 12 12 11 11 10 10 9
2 3 2 2 5 4 2 1 6 9 8 6 5 5 3 4 16 21 19 18 16 12 10 14 21 21 20 20 19 19 18 18 17 17 16 15 14 14 14 13 13 12 12 11 11 11 10 9 9
2 3 2 3 4 1 2 3 6 2 3 4 4 3 3 9 17 19 18 16 15 15 12 12 21 21 20 20 19 18 18 17 17 16 16 15 14 14 13 13 13 12 12 12 11 11 11 11 10
3 2 3 4 4 3 5 4 6 3 1 2 1 3 3 9 14 16 15 14 14 14 13 10 12 15 19 19 19 18 18 17 17 16 16 15 15 14 14 13 13 13 13 13 12 12 12 12 11
5 3 2 3 4 4 4 4 4 7 4 1 2 6 6 10 13 14 14 13 13 12 12 11 10 9 10 12 18 18 17 17 16 16 16 15 15 14 14 12 12 14 14 14 14 14 14 13 12
2 2 4 4 4 5 3 4 3 4 7 4 4 7 10 16 17 15 13 12 12 13 11 10 10 9 8 8 13 15 16 16 16 14 16 14 7 7 8 12 14 15 15 16 16 15 15 14 13
4 3 9 7 6 4 4 5 8 6 6 4 3 5 14 17 18 19 18 18 17 16 14 11 11 10 9 9 8 6 8 8 8 6 8 6 5 6 9 11 17 18 18 18 17 17 15 12 6
4 7 8 9 9 4 4 4 8 11 7 11 14 16 18 16 16 18 18 18 18 16 15 13 12 11 11 8 7 5 5 5 7 8 7 5 5 5 6 4 8 10 13 10 10 11 7 6 5
4 9 8 7 6 3 3 3 4 10 14 16 19 20 18 16 16 16 15 14 13 13 12 12 12 11 11 9 8 7 6 6 6 8 8 6 5 5 5 4 4 4 4 5 5 4 6 7 8
5 6 7 7 7 4 3 3 4 6 8 13 13 13 15 14 12 10 8 8 9 8 7 7 8 9 10 9 7 7 7 7 7 6 7 8 6 6 6 4 3 4 3 3 4 4 5 6 7
6 8 10 9 8 5 4 6 2 6 8 13 14 13 11 8 5 4 5 7 8 7 4 3 6 6 6 7 6 5 6 5 5 6 8 9 6 5 4 4 3 3 3 3 4 4 4 4 4
5 8 11 9 7 6 4 8 7 6 10 13 12 9 4 2 6 8 9 9 8 7 6 4 2 3 4 7 8 6 5 5 5 5 6 7 6 5 4 3 3 3 3 3 3 3 2 3 3
6 5 7 13 6 8 1 8 11 3 11 10 8 6 4 6 9 10 12 13 11 11 10 7 2 4 7 5 5 3 3 4 4 4 4 6 6 5 4 3 3 2 2 2 2 2 2 2 2
4 4 9 14 7 5 4 3 7 3 8 5 4 4 6 8 11 13 14 13 12 12 12 12 12 8 7 6 2 1 2 4 3 3 4 5 5 6 4 3 2 2 1 1 1 1 1 1 2
6 5 6 7 8 5 8 9 13 14 11 10 8 7 9 14 13 10 11 10 10 9 9 9 9 11 8 4 3 2 1 0 1 3 4 5 5 6 5 3 3 3 2 1 1 1 1 1 2
5 3 3 4 6 10 15 16 19 19 20 17 14 13 13 12 9 9 8 7 7 7 6 7 6 8 6 4 3 1 1 1 1 3 5 5 5 6 5 4 3 3 2 2 1 1 1 1 0
3 3 3 4 7 8 14 16 17 21 21 18 16 14 12 9 9 9 8 6 6 5 4 6 5 4 3 4 3 1 2 2 2 3 3 5 6 6 6 6 4 4 2 1 1 1 1 1 0
4 2 3 3 5 7 7 9 13 15 17 18 17 14 11 10 9 8 8 7 7 8 8 8 6 5 4 5 2 2 1 1 1 1 2 4 6 7 7 7 5 4 4 3 2 2 3 2 1
4 4 2 3 4 3 3 3 5 7 14 15 13 11 10 9 8 8 8 9 9 8 8 8 6 7 7 6 5 3 2 2 2 2 2 4 5 6 7 7 7 6 4 4 3 3 3 3 2
3 3 3 2 1 1 3 5 0 4 9 10 8 8 7 6 6 7 8 8 8 7 7 6 6 7 8 8 8 6 5 3 3 2 2 2 3 4 5 7 7 6 5 5 4 4 3 3 3
1 6 8 7 6 3 3 3 1 3 3 4 5 5 4 4 5 6 6 6 5 5 5 5 5 6 7 7 8 8 7 6 6 5 4 4 3 3 4 5 6 7 6 6 5 5 5 4 4
5 7 6 7 6 3 1 4 2 4 5 5 5 4 3 3 2 3 3 3 3 3 3 3 4 4 5 5 5 5 6 6 6 6 5 4 3 3 4 4 5 6 6 6 6 5 5 5 5
2 8 6 3 4 2 2 1 3 4 4 4 3 4 3 2 2 2 2 2 2 2 1 1 1 2 3 3 3 3 3 3 3 4 4 4 4 4 5 4 3 5 7 7 6 5 5 5 5
1 1 5 6 0 1 1 1 2 4 5 4 4 3 3 3 2 2 2 3 4 4 4 3 2 2 2 2 3 3 3 3 4 5 4 4 4 5 6 6 5 4 5 6 6 5 6 5 6
2 2 6 4 2 2 1 3 4 7 7 6 4 3 3 2 2 3 4 4 5 5 5 4 4 4 5 5 5 4 4 5 5 4 5 5 5 5 6 6 6 6 5 5 6 5 6 6 6
4 4 4 3 4 3 2 4 4 7 6 4 3 2 1 2 4 5 6 5 5 4 4 4 5 6 6 7 7 6 6 6 6 5 6 5 5 5 5 6 6 6 6 6 5 6 7 8 7
3 1 4 3 2 2 1 5 3 2 2 2 2 2 3 4 6 7 6 5 4 4 5 6 7 7 8 8 8 8 8 7 7 7 8 7 6 6 6 5 6 7 7 6 6 7 7 7 8
Wind_Direction
157 151 152 152 92 9 276 272 48 45 59 58 77 89 89 75 146 167 143 146 144 152 158 157 155 156 156 154 153 151 149 148 147 144 141 139 138 138 138 138 138 136 134 134 133 133 132 132 132
161 159 152 129 89 360 297 334 34 44 113 119 80 75 79 69 84 110 123 148 146 151 154 155 155 156 157 157 156 156 156 155 154 152 149 147 146 146 146 146 145 145 144 143 144 143 143 144 144
180 176 151 107 319 227 294 351 8 2 78 88 76 52 74 110 119 125 142 144 142 149 152 158 156 158 159 159 160 161 161 161 160 158 157 155 155 155 154 154 154 153 153 153 154 154 156 158 159
159 126 63 69 259 247 243 331 11 0 8 28 84 64 61 120 129 134 139 144 145 151 155 161 159 160 162 163 164 165 166 166 165 164 163 163 163 163 162 162 162 162 163 164 164 165 167 171 174
105 96 61 301 261 249 232 57 33 355 347 5 54 81 44 55 121 134 145 151 151 152 159 165 163 164 165 166 168 170 170 170 170 169 169 170 172 172 172 172 172 173 174 176 177 179 181 185 190
71 80 80 268 269 238 197 178 133 101 351 359 29 64 68 126 132 146 151 155 156 157 162 167 168 168 169 170 172 174 175 175 175 176 176 177 179 181 182 183 184 185 187 189 191 194 195 198 203
146 120 222 248 279 260 203 182 136 131 298 291 125 89 112 149 150 152 154 155 157 160 165 170 171 173 174 175 177 179 180 181 182 183 184 186 188 190 192 194 196 198 200 201 203 206 208 209 212
158 110 284 281 295 273 202 163 149 148 177 222 167 149 170 176 158 155 156 157 159 165 171 174 173 173 174 178 183 184 185 187 188 190 192 195 197 199 202 204 209 210 211 213 214 215 217 218 220
129 77 258 249 253 264 201 159 157 156 142 184 199 179 174 160 157 158 159 161 167 173 178 178 176 175 173 176 188 188 190 194 195 197 200 200 204 207 211 216 218 221 222 222 223 223 224 224 227
120 180 239 237 240 248 216 178 166 151 161 180 175 163 157 162 165 169 172 174 178 181 182 182 181 178 174 184 185 187 194 197 198 198 203 200 197 209 217 225 228 229 229 229 229 229 229 230 228
190 217 253 267 264 242 220 214 166 151 187 197 181 175 172 175 177 180 180 182 184 181 181 182 183 182 182 189 182 189 197 196 202 204 206 204 203 215 225 223 236 236 235 232 233 230 226 225 224
273 272 271 273 283 281 247 231 175 185 206 194 183 175 177 184 186 186 183 182 177 175 182 180 181 184 191 194 188 189 195 197 204 209 206 203 209 216 222 222 224 223 223 219 221 219 219 224 230
277 281 297 296 308 300 313 273 238 224 203 178 181 181 187 190 189 186 171 154 150 158 161 171 182 193 198 198 193 193 198 201 202 202 206 205 208 216 219 221 218 217 212 213 216 221 224 222 229
284 302 303 299 304 301 305 299 291 247 176 173 185 194 199 193 177 133 108 95 102 105 103 150 186 198 215 209 196 192 196 200 196 198 205 203 203 208 212 220 220 217 203 199 205 213 220 221 223
311 326 318 300 295 287 337 319 273 228 169 180 192 196 193 105 75 78 78 74 85 86 74 80 201 241 235 221 200 188 183 179 182 190 193 188 188 194 195 204 217 222 213 206 210 223 226 236 234
340 345 305 285 274 271 203 270 283 167 155 177 184 175 140 77 73 73 69 67 63 52 40 32 315 319 288 252 212 184 172 162 169 176 176 178 180 178 175 189 215 220 210 207 216 224 234 244 243
346 291 280 292 284 259 162 249 335 64 133 134 139 126 106 83 67 68 67 68 66 61 47 28 359 335 312 291 263 220 164 157 163 169 173 179 176 174 170 181 202 184 165 195 223 187 194 230 258
266 276 297 308 322 42 73 55 39 41 58 57 55 60 73 67 64 63 62 60 59 60 61 46 20 336 304 311 328 319 343 132 164 181 184 180 177 174 163 164 172 152 130 131 158 188 197 205 235
260 293 321 323 350 56 67 59 46 45 49 45 44 52 66 67 59 50 50 52 53 61 72 70 40 346 337 340 309 323 293 285 243 215 193 184 180 170 159 154 151 140 142 174 190 183 226 267 220
331 3 349 338 7 61 77 70 61 53 54 51 48 51 54 48 42 40 40 43 42 45 71 81 57 359 325 299 282 269 261 253 241 225 200 191 180 171 163 159 161 157 154 172 184 161 167 256 168
339 7 348 345 16 38 93 61 58 58 61 57 52 47 42 44 43 44 51 50 52 47 37 40 30 20 342 323 323 327 343 346 357 289 226 213 192 177 167 171 166 170 169 189 208 192 171 200 253
312 303 342 351 34 348 60 95 51 59 59 55 51 47 42 39 42 45 51 50 48 47 45 39 25 17 1 2 14 22 11 330 297 277 255 237 208 190 179 178 175 177 179 190 209 190 181 175 215
273 311 5 0 84 34 23 104 55 40 53 58 58 57 51 44 49 51 51 51 48 44 43 32 25 21 12 17 23 24 15 340 321 329 318 282 246 223 204 190 184 185 187 195 202 200 202 190 193
36 33 29 39 55 21 326 115 13 44 75 86 83 81 81 68 58 57 54 53 47 42 45 42 32 21 13 20 26 23 16 360 355 351 342 325 307 283 253 217 200 194 192 197 201 204 208 211 212
51 65 24 1 8 290 309 97 157 140 144 134 140 151 141 113 101 90 77 66 56 46 36 33 36 19 10 16 19 15 9 3 358 345 334 331 325 314 297 262 223 206 199 200 197 200 214 215 216
258 129 145 204 241 266 359 125 188 177 182 164 162 155 150 152 150 134 143 159 176 174 162 100 37 359 350 0 354 350 350 344 329 327 324 322 315 304 312 308 267 231 210 203 199 204 214 213 218
322 273 170 147 98 89 220 148 253 212 208 200 190 159 151 159 160 171 196 206 210 207 204 197 199 260 286 291 295 299 306 307 303 304 305 306 309 316 327 325 317 288 243 221 205 210 216 214 219
125 126 63 70 69 328 267 222 217 205 219 212 196 181 181 188 208 227 233 230 221 209 208 209 213 232 249 255 256 258 259 266 273 285 294 297 299 309 316 320 317 309 287 250 227 221 221 218 225
12 35 84 100 141 143 283 272 224 204 207 191 181 173 200 257 265 263 258 245 228 211 204 210 224 233 244 247 247 248 250 251 255 261 267 273 281 294 301 304 305 303 300 290 260 239 226 223 228
43 28 120 120 324 104 144 280 305 180 143 110 66 5 311 296 287 282 281 274 262 247 240 234 235 236 241 243 246 248 249 249 251 254 258 261 266 273 277 285 293 296 297 298 290 274 254 232 228